Weather in Visim

Russia / Sverdlovsk Oblast     57°39′05″N   59°29′47″E
temp.,
°C
wind,
m/s
gust,
m/s
humid.,
%
clouds,
%
prec.,
mm/h
press.,
hPa
HPBL,
m
8 march, mon
mon823:00−18w229997 0.2 100852
02:00−20sw229957 0.0 100822
05:00−20sw2210077 0.1 100833
08:00−19ssw249999 0.0 1006101
11:00−13s359199 0.1 1004304
14:00−9s4789100 0.3 1002884
17:00−9s3790100 0.7 1000763
20:00−9sse21196100 0.7 998698
9 march, tue
tue923:00−9sw51294100 1.3 9981006
02:00−9sw71492100 0.8 999998
05:00−11wsw61491100 1.1 1001595
08:00−13sw399699 0.1 1001296
11:00−10wsw259298 0.1 1003352
14:00−7w4686100 0.1 1005879
17:00−8w4789100 0.3 1007837
20:00−12w2597100 0.3 1009147
10 march, wed
wed1023:00−16wsw129993 0.3 101120
02:00−19w119973 0.0 101120
05:00−19wnw119887 0.0 101120
08:00−21ne129885 0.0 101020
11:00−16ne249486 0.0 1010294
14:00−14ne4693100 0.0 1009446
17:00−15ne4892100 0.1 1008559
20:00−18nne4996100 0.1 1009470
11 march, thu
thu1123:00−20nne3899100 0.1 1011298
02:00−24nnw239894 0.0 101129
05:00−25w129594 0.0 101220
08:00−28wsw229731 0.0 101230
11:00−21w369465 0.0 1012329
14:00−16wnw4889100 0.0 1012559
17:00−15wnw5990100 0.1 1012705
20:00−16w41195100 0.2 1012544
12 march, fri
fri1223:00−15w51094100 0.6 1013457
02:00−12w41194100 0.3 1013640
05:00−13wnw51293100 0.4 1014641
08:00−16w61394100 0.1 1016542
11:00−14w61290100 0.1 1018640
14:00−12wnw61186100 0.1 1019802
17:00−10wnw6128299 0.1 1020900
20:00−12w51389100 0.0 1022740